| time (UTC) | temp F | wind direction | speed MPH | gust MPH | rain 1hr in | rain 24hr in | rain mn in | humidity % | barometer mb |
| 20260508064732 | 47 | 232 | 2.0 | 8.0 | 0.00 | 0.00 | 0.00 | 70 | 1011.1 |
| 20260508064231 | 47 | 225 | 2.0 | 6.0 | 0.00 | 0.00 | 0.00 | 70 | 1011.1 |
| 20260508063230 | 47 | 238 | 2.0 | 4.0 | 0.00 | 0.00 | 0.00 | 70 | 1011.1 |
| 20260508062730 | 47 | 240 | 1.0 | 4.0 | 0.00 | 0.00 | 0.00 | 70 | 1011.2 |
| 20260508061733 | 47 | 0 | 0.0 | 0.0 | 0.00 | 0.00 | 0.00 | 70 | 1011.1 |
| 20260508061232 | 47 | 239 | 0.0 | 2.0 | 0.00 | 0.00 | 0.00 | 70 | 1011.1 |
| 20260508060732 | 47 | 239 | 0.0 | 2.0 | 0.00 | 0.00 | 0.00 | 70 | 1011.1 |
| 20260508060231 | 47 | 238 | 0.0 | 1.0 | 0.00 | 0.00 | 0.00 | 69 | 1011.2 |
| 20260508055731 | 47 | 0 | 0.0 | 0.0 | 0.00 | 0.00 | 0.00 | 69 | 1011.2 |
| 20260508055230 | 47 | 0 | 0.0 | 0.0 | 0.00 | 0.00 | 0.00 | 69 | 1011.2 |
| 20260508054229 | 48 | 0 | 0.0 | 0.0 | 0.00 | 0.00 | 0.00 | 69 | 1011.4 |
| 20260508053733 | 48 | 0 | 0.0 | 0.0 | 0.00 | 0.00 | 0.00 | 68 | 1011.5 |
| 20260508053232 | 48 | 0 | 0.0 | 0.0 | 0.00 | 0.00 | 0.00 | 68 | 1011.5 |
| 20260508052732 | 48 | 0 | 0.0 | 0.0 | 0.00 | 0.00 | 0.00 | 68 | 1011.6 |
| 20260508052231 | 48 | 0 | 0.0 | 0.0 | 0.00 | 0.00 | 0.00 | 68 | 1011.6 |
| 20260508051230 | 48 | 0 | 0.0 | 0.0 | 0.00 | 0.00 | 0.00 | 68 | 1011.6 |
| 20260508050730 | 48 | 0 | 0.0 | 0.0 | 0.00 | 0.00 | 0.00 | 67 | 1011.7 |
| 20260508050230 | 48 | 0 | 0.0 | 0.0 | 0.00 | 0.00 | 0.00 | 67 | 1011.8 |
| 20260508045232 | 48 | 0 | 0.0 | 0.0 | 0.00 | 0.00 | 0.00 | 67 | 1011.7 |
| 20260508044732 | 48 | 0 | 0.0 | 0.0 | 0.00 | 0.00 | 0.00 | 67 | 1011.6 |
| 20260508044231 | 48 | 240 | 0.0 | 1.0 | 0.00 | 0.00 | 0.00 | 67 | 1011.6 |
| 20260508043230 | 48 | 239 | 2.0 | 3.0 | 0.00 | 0.00 | 0.00 | 67 | 1011.6 |
| 20260508042730 | 48 | 237 | 2.0 | 4.0 | 0.00 | 0.00 | 0.00 | 67 | 1011.7 |
| 20260508041733 | 47 | 230 | 2.0 | 4.0 | 0.00 | 0.00 | 0.00 | 67 | 1011.7 |
| 20260508041232 | 47 | 227 | 3.0 | 5.0 | 0.00 | 0.00 | 0.00 | 67 | 1011.8 |
| 20260508040732 | 47 | 230 | 2.0 | 5.0 | 0.00 | 0.00 | 0.00 | 67 | 1011.7 |
| 20260508040231 | 46 | 234 | 2.0 | 4.0 | 0.00 | 0.00 | 0.00 | 68 | 1011.8 |
| 20260508035732 | 46 | 230 | 2.0 | 5.0 | 0.00 | 0.00 | 0.00 | 68 | 1011.8 |
| 20260508034730 | 46 | 245 | 2.0 | 5.0 | 0.00 | 0.00 | 0.00 | 69 | 1011.8 |
| 20260508034229 | 45 | 254 | 2.0 | 6.0 | 0.00 | 0.00 | 0.00 | 69 | 1011.9 |
| 20260508033232 | 45 | 273 | 1.0 | 4.0 | 0.00 | 0.00 | 0.00 | 70 | 1011.8 |
| 20260508032732 | 45 | 295 | 1.0 | 4.0 | 0.00 | 0.00 | 0.00 | 69 | 1011.9 |
| 20260508032231 | 45 | 320 | 0.0 | 1.0 | 0.00 | 0.00 | 0.00 | 68 | 1011.9 |
| 20260508031230 | 46 | 0 | 0.0 | 0.0 | 0.00 | 0.00 | 0.00 | 68 | 1011.8 |
| 20260508030731 | 46 | 321 | 0.0 | 1.0 | 0.00 | 0.00 | 0.00 | 68 | 1011.8 |
| 20260508030229 | 46 | 321 | 0.0 | 1.0 | 0.00 | 0.00 | 0.00 | 68 | 1011.8 |
| 20260508025733 | 46 | 321 | 0.0 | 1.0 | 0.00 | 0.00 | 0.00 | 68 | 1011.8 |
| 20260508024732 | 46 | 0 | 0.0 | 0.0 | 0.00 | 0.00 | 0.00 | 68 | 1011.8 |
| 20260508024231 | 46 | 0 | 0.0 | 0.0 | 0.00 | 0.00 | 0.00 | 67 | 1011.8 |
| 20260508023731 | 46 | 0 | 0.0 | 0.0 | 0.00 | 0.00 | 0.00 | 68 | 1011.7 |
| 20260508023230 | 46 | 0 | 0.0 | 0.0 | 0.00 | 0.00 | 0.00 | 67 | 1011.6 |
| 20260508022730 | 47 | 0 | 0.0 | 0.0 | 0.00 | 0.00 | 0.00 | 67 | 1011.6 |
| 20260508022229 | 47 | 0 | 0.0 | 0.0 | 0.00 | 0.00 | 0.00 | 67 | 1011.6 |
| 20260508021232 | 47 | 0 | 0.0 | 0.0 | 0.00 | 0.00 | 0.00 | 66 | 1011.6 |
| 20260508020732 | 47 | 0 | 0.0 | 0.0 | 0.00 | 0.00 | 0.00 | 65 | 1011.6 |
| 20260508020231 | 47 | 0 | 0.0 | 0.0 | 0.00 | 0.00 | 0.00 | 65 | 1011.6 |
| 20260508015731 | 48 | 0 | 0.0 | 0.0 | 0.00 | 0.00 | 0.00 | 64 | 1011.6 |
| 20260508015230 | 48 | 0 | 0.0 | 0.0 | 0.00 | 0.00 | 0.00 | 63 | 1011.5 |
| 20260508014730 | 48 | 0 | 0.0 | 0.0 | 0.00 | 0.00 | 0.00 | 62 | 1011.5 |
| 20260508014229 | 48 | 0 | 0.0 | 0.0 | 0.00 | 0.00 | 0.00 | 62 | 1011.5 |
| 20260508013733 | 48 | 0 | 0.0 | 0.0 | 0.00 | 0.00 | 0.00 | 61 | 1011.4 |
| 20260508013232 | 49 | 0 | 0.0 | 0.0 | 0.00 | 0.00 | 0.00 | 61 | 1011.3 |
| 20260508012731 | 49 | 0 | 0.0 | 0.0 | 0.00 | 0.00 | 0.00 | 59 | 1011.3 |
| 20260508012230 | 49 | 0 | 0.0 | 0.0 | 0.00 | 0.00 | 0.00 | 57 | 1011.4 |
| 20260508011730 | 50 | 0 | 0.0 | 0.0 | 0.00 | 0.00 | 0.00 | 57 | 1011.3 |
| 20260508011230 | 50 | 0 | 0.0 | 0.0 | 0.00 | 0.00 | 0.00 | 56 | 1011.2 |
| 20260508010730 | 50 | 0 | 0.0 | 0.0 | 0.00 | 0.00 | 0.00 | 54 | 1011.2 |
| 20260508005732 | 51 | 0 | 0.0 | 0.0 | 0.00 | 0.00 | 0.00 | 52 | 1011.2 |
| 20260508005231 | 51 | 0 | 0.0 | 0.0 | 0.00 | 0.00 | 0.00 | 51 | 1011.2 |
| 20260508004731 | 52 | 0 | 0.0 | 0.0 | 0.00 | 0.00 | 0.00 | 51 | 1011.2 |
| 20260508004230 | 52 | 320 | 0.0 | 1.0 | 0.00 | 0.00 | 0.00 | 51 | 1011.2 |
| 20260508003730 | 52 | 321 | 0.0 | 4.0 | 0.00 | 0.00 | 0.00 | 50 | 1011.1 |
| 20260508003233 | 52 | 321 | 1.0 | 4.0 | 0.00 | 0.00 | 0.00 | 48 | 1011.0 |
| 20260508002733 | 52 | 314 | 2.0 | 7.0 | 0.00 | 0.00 | 0.00 | 48 | 1011.0 |
| 20260508002232 | 52 | 314 | 2.0 | 8.0 | 0.00 | 0.00 | 0.00 | 48 | 1011.0 |
| 20260508001732 | 53 | 324 | 2.0 | 8.0 | 0.00 | 0.00 | 0.00 | 47 | 1010.9 |
| 20260508001231 | 53 | 298 | 2.0 | 6.0 | 0.00 | 0.00 | 0.00 | 47 | 1010.9 |
| 20260508000731 | 53 | 278 | 2.0 | 6.0 | 0.00 | 0.00 | 0.00 | 48 | 1010.8 |
| 20260508000230 | 53 | 294 | 3.0 | 5.0 | 0.00 | 0.00 | 0.00 | 47 | 1010.8 |
| 20260507235730 | 53 | 304 | 3.0 | 9.0 | 0.00 | 0.00 | 0.00 | 47 | 1010.7 |
| 20260507234733 | 54 | 304 | 5.0 | 11.0 | 0.00 | 0.00 | 0.00 | 45 | 1010.7 |
| 20260507234232 | 54 | 306 | 5.0 | 11.0 | 0.00 | 0.00 | 0.00 | 46 | 1010.7 |
| 20260507233732 | 54 | 307 | 5.0 | 14.0 | 0.00 | 0.00 | 0.00 | 46 | 1010.6 |
| 20260507233231 | 54 | 313 | 4.0 | 14.0 | 0.00 | 0.00 | 0.00 | 46 | 1010.6 |
| 20260507232730 | 54 | 312 | 4.0 | 11.0 | 0.00 | 0.00 | 0.00 | 46 | 1010.6 |
| 20260507230732 | 54 | 298 | 3.0 | 13.0 | 0.00 | 0.00 | 0.00 | 46 | 1010.7 |
| 20260507225731 | 55 | 300 | 4.0 | 9.0 | 0.00 | 0.00 | 0.00 | 46 | 1010.7 |
| 20260507225230 | 55 | 310 | 5.0 | 12.0 | 0.00 | 0.00 | 0.00 | 47 | 1010.8 |
| 20260507224730 | 55 | 311 | 5.0 | 16.0 | 0.00 | 0.00 | 0.00 | 46 | 1010.8 |
| 20260507224233 | 55 | 309 | 4.0 | 16.0 | 0.00 | 0.00 | 0.00 | 47 | 1010.6 |
| 20260507223232 | 55 | 299 | 4.0 | 13.0 | 0.00 | 0.00 | 0.00 | 47 | 1010.7 |
| 20260507222732 | 55 | 307 | 4.0 | 13.0 | 0.00 | 0.00 | 0.00 | 46 | 1010.7 |
| 20260507221731 | 55 | 311 | 5.0 | 12.0 | 0.00 | 0.00 | 0.00 | 48 | 1010.7 |
| 20260507221230 | 55 | 325 | 4.0 | 10.0 | 0.00 | 0.00 | 0.00 | 48 | 1010.6 |
| 20260507215232 | 56 | 308 | 5.0 | 17.0 | 0.00 | 0.00 | 0.00 | 51 | 1010.6 |
| 20260507214731 | 56 | 308 | 6.0 | 18.0 | 0.00 | 0.00 | 0.00 | 50 | 1010.5 |
| 20260507214231 | 56 | 314 | 5.0 | 18.0 | 0.00 | 0.00 | 0.00 | 49 | 1010.5 |
| 20260507213730 | 56 | 315 | 4.0 | 14.0 | 0.00 | 0.00 | 0.00 | 50 | 1010.4 |
| 20260507213230 | 56 | 316 | 4.0 | 12.0 | 0.00 | 0.00 | 0.00 | 51 | 1010.2 |
| 20260507212729 | 56 | 311 | 4.0 | 12.0 | 0.00 | 0.00 | 0.00 | 49 | 1010.2 |
| 20260507204732 | 58 | 306 | 5.0 | 13.0 | 0.00 | 0.00 | 0.00 | 45 | 1010.0 |
| 20260507204231 | 58 | 297 | 4.0 | 13.0 | 0.00 | 0.00 | 0.00 | 46 | 1009.9 |
| 20260507203230 | 58 | 294 | 4.0 | 12.0 | 0.00 | 0.00 | 0.00 | 46 | 1009.8 |
| 20260507202730 | 58 | 305 | 4.0 | 12.0 | 0.00 | 0.00 | 0.00 | 45 | 1009.7 |
| 20260507201733 | 59 | 302 | 5.0 | 12.0 | 0.00 | 0.00 | 0.00 | 44 | 1009.8 |
| 20260507201231 | 59 | 310 | 5.0 | 14.0 | 0.00 | 0.00 | 0.00 | 44 | 1009.9 |
| 20260507200731 | 59 | 314 | 5.0 | 14.0 | 0.00 | 0.00 | 0.00 | 45 | 1009.7 |
| 20260507200230 | 59 | 315 | 4.0 | 9.0 | 0.00 | 0.00 | 0.00 | 44 | 1009.8 |
| 20260507195730 | 60 | 316 | 5.0 | 15.0 | 0.00 | 0.00 | 0.00 | 43 | 1009.7 |
| 20260507195233 | 60 | 308 | 6.0 | 16.0 | 0.00 | 0.00 | 0.00 | 42 | 1009.8 |
| 20260507194733 | 60 | 281 | 4.0 | 16.0 | 0.00 | 0.00 | 0.00 | 41 | 1009.9 |
| 20260507194232 | 61 | 259 | 4.0 | 12.0 | 0.00 | 0.00 | 0.00 | 43 | 1009.9 |
| 20260507193731 | 61 | 295 | 3.0 | 9.0 | 0.00 | 0.00 | 0.00 | 44 | 1010.0 |
| 20260507192730 | 61 | 281 | 4.0 | 10.0 | 0.00 | 0.00 | 0.00 | 42 | 1010.0 |
| 20260507192230 | 62 | 300 | 4.0 | 10.0 | 0.00 | 0.00 | 0.00 | 41 | 1010.1 |
| 20260507191730 | 62 | 311 | 5.0 | 12.0 | 0.00 | 0.00 | 0.00 | 44 | 1010.1 |
| 20260507191233 | 62 | 310 | 4.0 | 12.0 | 0.00 | 0.00 | 0.00 | 41 | 1010.0 |
| 20260507190733 | 62 | 311 | 3.0 | 11.0 | 0.00 | 0.00 | 0.00 | 43 | 1010.1 |
| 20260507190232 | 62 | 273 | 4.0 | 10.0 | 0.00 | 0.00 | 0.00 | 46 | 1010.1 |
| 20260507185732 | 61 | 235 | 5.0 | 8.0 | 0.00 | 0.00 | 0.00 | 44 | 1010.0 |
| 20260507185231 | 60 | 257 | 5.0 | 13.0 | 0.00 | 0.00 | 0.00 | 47 | 1010.1 |
| 20260507184730 | 60 | 279 | 5.0 | 14.0 | 0.00 | 0.00 | 0.00 | 47 | 1010.2 |
| 20260507184230 | 60 | 257 | 4.0 | 14.0 | 0.00 | 0.00 | 0.00 | 43 | 1010.2 |
| 20260507183730 | 60 | 241 | 4.0 | 12.0 | 0.00 | 0.00 | 0.00 | 42 | 1010.3 |
| 20260507182732 | 61 | 232 | 4.0 | 11.0 | 0.00 | 0.00 | 0.00 | 41 | 1010.1 |
| 20260507182232 | 61 | 236 | 4.0 | 10.0 | 0.00 | 0.00 | 0.00 | 42 | 1010.2 |
| 20260507181731 | 61 | 252 | 4.0 | 8.0 | 0.00 | 0.00 | 0.00 | 40 | 1010.2 |
| 20260507180730 | 62 | 264 | 3.0 | 8.0 | 0.00 | 0.00 | 0.00 | 41 | 1010.2 |
| 20260507180229 | 62 | 253 | 4.0 | 11.0 | 0.00 | 0.00 | 0.00 | 42 | 1010.3 |
| 20260507175729 | 62 | 265 | 4.0 | 11.0 | 0.00 | 0.00 | 0.00 | 39 | 1010.3 |
| 20260507175233 | 62 | 270 | 4.0 | 14.0 | 0.00 | 0.00 | 0.00 | 44 | 1010.3 |
| 20260507174732 | 62 | 276 | 4.0 | 14.0 | 0.00 | 0.00 | 0.00 | 43 | 1010.1 |
| 20260507173731 | 61 | 269 | 5.0 | 13.0 | 0.00 | 0.00 | 0.00 | 46 | 1010.4 |
| 20260507172730 | 60 | 246 | 4.0 | 9.0 | 0.00 | 0.00 | 0.00 | 47 | 1010.4 |
| 20260507172230 | 60 | 245 | 5.0 | 11.0 | 0.00 | 0.00 | 0.00 | 46 | 1010.4 |
| 20260507171729 | 59 | 254 | 3.0 | 11.0 | 0.00 | 0.00 | 0.00 | 44 | 1010.4 |
| 20260507171233 | 60 | 249 | 3.0 | 7.0 | 0.00 | 0.00 | 0.00 | 41 | 1010.5 |
| 20260507170731 | 60 | 263 | 3.0 | 10.0 | 0.00 | 0.00 | 0.00 | 45 | 1010.5 |
| 20260507170233 | 60 | 271 | 3.0 | 10.0 | 0.00 | 0.00 | 0.00 | 45 | 1010.5 |
| 20260507165232 | 61 | 307 | 3.0 | 10.0 | 0.00 | 0.00 | 0.00 | 43 | 1010.5 |
| 20260507164732 | 61 | 283 | 3.0 | 10.0 | 0.00 | 0.00 | 0.00 | 42 | 1010.5 |
| 20260507164231 | 61 | 280 | 3.0 | 9.0 | 0.00 | 0.00 | 0.00 | 46 | 1010.6 |
| 20260507162733 | 60 | 304 | 3.0 | 9.0 | 0.00 | 0.00 | 0.00 | 47 | 1010.6 |
| 20260507162232 | 60 | 305 | 3.0 | 8.0 | 0.00 | 0.00 | 0.00 | 43 | 1010.6 |
| 20260507161732 | 60 | 308 | 4.0 | 12.0 | 0.00 | 0.00 | 0.00 | 46 | 1010.6 |
| 20260507160230 | 60 | 282 | 3.0 | 10.0 | 0.00 | 0.00 | 0.00 | 45 | 1010.6 |
| 20260507155730 | 60 | 285 | 3.0 | 10.0 | 0.00 | 0.00 | 0.00 | 45 | 1010.6 |
| 20260507155233 | 60 | 289 | 3.0 | 8.0 | 0.00 | 0.00 | 0.00 | 46 | 1010.7 |
| 20260507154732 | 60 | 313 | 4.0 | 14.0 | 0.00 | 0.00 | 0.00 | 45 | 1010.7 |
| 20260507154232 | 60 | 306 | 4.0 | 14.0 | 0.00 | 0.00 | 0.00 | 46 | 1010.7 |
| 20260507153731 | 59 | 266 | 3.0 | 12.0 | 0.00 | 0.00 | 0.00 | 47 | 1010.7 |
| 20260507153230 | 59 | 238 | 2.0 | 8.0 | 0.00 | 0.00 | 0.00 | 45 | 1010.7 |
| 20260507152730 | 58 | 285 | 3.0 | 10.0 | 0.00 | 0.00 | 0.00 | 48 | 1010.7 |
| 20260507152230 | 58 | 281 | 3.0 | 10.0 | 0.00 | 0.00 | 0.00 | 49 | 1010.7 |
| 20260507151730 | 58 | 255 | 2.0 | 6.0 | 0.00 | 0.00 | 0.00 | 48 | 1010.8 |
| 20260507151232 | 58 | 281 | 2.0 | 6.0 | 0.00 | 0.00 | 0.00 | 50 | 1010.7 |
| 20260507150732 | 58 | 243 | 3.0 | 6.0 | 0.00 | 0.00 | 0.00 | 52 | 1010.7 |
| 20260507145731 | 57 | 294 | 3.0 | 8.0 | 0.00 | 0.00 | 0.00 | 53 | 1010.9 |
| 20260507145230 | 56 | 301 | 3.0 | 6.0 | 0.00 | 0.00 | 0.00 | 55 | 1010.8 |
| 20260507143729 | 54 | 260 | 2.0 | 4.0 | 0.00 | 0.00 | 0.00 | 62 | 1010.9 |
| 20260507143233 | 53 | 289 | 2.0 | 5.0 | 0.00 | 0.00 | 0.00 | 61 | 1010.9 |
| 20260507142732 | 52 | 317 | 3.0 | 6.0 | 0.00 | 0.00 | 0.00 | 62 | 1010.9 |
| 20260507142232 | 52 | 310 | 3.0 | 6.0 | 0.00 | 0.00 | 0.00 | 63 | 1011.0 |
| 20260507141731 | 52 | 286 | 2.0 | 6.0 | 0.00 | 0.00 | 0.00 | 66 | 1011.0 |
| 20260507141230 | 52 | 286 | 2.0 | 5.0 | 0.00 | 0.00 | 0.00 | 68 | 1011.1 |
| 20260507140730 | 51 | 310 | 3.0 | 5.0 | 0.00 | 0.00 | 0.00 | 68 | 1011.2 |
| 20260507135733 | 50 | 258 | 2.0 | 3.0 | 0.00 | 0.00 | 0.00 | 72 | 1011.2 |
| 20260507135232 | 50 | 284 | 1.0 | 3.0 | 0.00 | 0.00 | 0.00 | 74 | 1011.3 |
| 20260507133730 | 49 | 239 | 2.0 | 5.0 | 0.00 | 0.00 | 0.00 | 76 | 1011.4 |
| 20260507133229 | 49 | 253 | 2.0 | 6.0 | 0.00 | 0.00 | 0.00 | 76 | 1011.4 |
| 20260507132733 | 48 | 249 | 2.0 | 6.0 | 0.00 | 0.00 | 0.00 | 77 | 1011.5 |
| 20260507132232 | 48 | 275 | 3.0 | 9.0 | 0.00 | 0.00 | 0.00 | 78 | 1011.5 |
| 20260507131732 | 48 | 306 | 3.0 | 9.0 | 0.00 | 0.00 | 0.00 | 80 | 1011.5 |
| 20260507131231 | 47 | 302 | 1.0 | 5.0 | 0.00 | 0.00 | 0.00 | 82 | 1011.5 |
| 20260507130731 | 47 | 290 | 0.0 | 3.0 | 0.00 | 0.00 | 0.00 | 83 | 1011.5 |
| 20260507130230 | 46 | 240 | 1.0 | 3.0 | 0.00 | 0.00 | 0.00 | 84 | 1011.4 |
| 20260507125729 | 46 | 239 | 1.0 | 3.0 | 0.00 | 0.00 | 0.00 | 86 | 1011.4 |
| 20260507125233 | 46 | 238 | 1.0 | 4.0 | 0.00 | 0.00 | 0.00 | 87 | 1011.5 |
| 20260507124231 | 45 | 249 | 2.0 | 6.0 | 0.00 | 0.00 | 0.00 | 88 | 1011.4 |
| 20260507123731 | 44 | 250 | 1.0 | 6.0 | 0.00 | 0.00 | 0.00 | 90 | 1011.5 |
| 20260507123230 | 44 | 263 | 1.0 | 4.0 | 0.00 | 0.00 | 0.00 | 90 | 1011.5 |
| 20260507120732 | 42 | 267 | 0.0 | 3.0 | 0.00 | 0.00 | 0.00 | 91 | 1011.4 |
| 20260507120232 | 42 | 317 | 0.0 | 2.0 | 0.00 | 0.00 | 0.00 | 91 | 1011.4 |
| 20260507114730 | 40 | 330 | 0.0 | 3.0 | 0.00 | 0.00 | 0.00 | 90 | 1011.5 |
| 20260507114229 | 40 | 0 | 0.0 | 0.0 | 0.00 | 0.00 | 0.00 | 90 | 1011.5 |
| 20260507113729 | 40 | 0 | 0.0 | 0.0 | 0.00 | 0.00 | 0.00 | 90 | 1011.5 |
| 20260507112732 | 39 | 0 | 0.0 | 0.0 | 0.00 | 0.00 | 0.00 | 89 | 1011.3 |
| 20260507112232 | 39 | 0 | 0.0 | 0.0 | 0.00 | 0.00 | 0.00 | 89 | 1011.2 |
| 20260507111231 | 39 | 0 | 0.0 | 0.0 | 0.00 | 0.00 | 0.00 | 89 | 1011.3 |
| 20260507110730 | 39 | 0 | 0.0 | 0.0 | 0.00 | 0.00 | 0.00 | 89 | 1011.2 |
| 20260507105733 | 39 | 0 | 0.0 | 0.0 | 0.00 | 0.00 | 0.00 | 89 | 1011.1 |
| 20260507100732 | 39 | 0 | 0.0 | 0.0 | 0.00 | 0.00 | 0.00 | 89 | 1011.0 |
| 20260507100231 | 39 | 0 | 0.0 | 0.0 | 0.00 | 0.00 | 0.00 | 88 | 1011.0 |
| 20260507095230 | 39 | 0 | 0.0 | 0.0 | 0.00 | 0.00 | 0.00 | 88 | 1010.9 |
| 20260507094233 | 39 | 0 | 0.0 | 0.0 | 0.00 | 0.01 | 0.00 | 88 | 1011.0 |
| 20260507091730 | 39 | 0 | 0.0 | 0.0 | 0.00 | 0.03 | 0.00 | 88 | 1011.1 |
| 20260507090733 | 39 | 0 | 0.0 | 0.0 | 0.00 | 0.05 | 0.00 | 88 | 1011.1 |
| 20260507090232 | 39 | 0 | 0.0 | 0.0 | 0.00 | 0.05 | 0.00 | 88 | 1011.1 |
| 20260507085732 | 39 | 0 | 0.0 | 0.0 | 0.00 | 0.05 | 0.00 | 87 | 1011.1 |
| 20260507085231 | 39 | 0 | 0.0 | 0.0 | 0.00 | 0.05 | 0.00 | 87 | 1011.2 |
| 20260507084731 | 40 | 0 | 0.0 | 0.0 | 0.00 | 0.05 | 0.00 | 87 | 1011.1 |
| 20260507084231 | 40 | 0 | 0.0 | 0.0 | 0.00 | 0.05 | 0.00 | 87 | 1011.1 |
| 20260507083229 | 40 | 0 | 0.0 | 0.0 | 0.00 | 0.05 | 0.00 | 86 | 1011.2 |
| 20260507082733 | 40 | 0 | 0.0 | 0.0 | 0.00 | 0.05 | 0.00 | 86 | 1011.2 |
| 20260507082233 | 40 | 0 | 0.0 | 0.0 | 0.00 | 0.05 | 0.00 | 86 | 1011.2 |
| 20260507081732 | 40 | 0 | 0.0 | 0.0 | 0.00 | 0.07 | 0.00 | 86 | 1011.2 |
| 20260507080230 | 40 | 0 | 0.0 | 0.0 | 0.00 | 0.10 | 0.00 | 86 | 1011.2 |
| 20260507075730 | 40 | 0 | 0.0 | 0.0 | 0.00 | 0.10 | 0.00 | 86 | 1011.3 |
| 20260507075229 | 40 | 0 | 0.0 | 0.0 | 0.00 | 0.11 | 0.00 | 86 | 1011.3 |
| 20260507074733 | 41 | 0 | 0.0 | 0.0 | 0.00 | 0.12 | 0.00 | 86 | 1011.3 |
| 20260507074233 | 41 | 0 | 0.0 | 0.0 | 0.00 | 0.14 | 0.00 | 85 | 1011.3 |
| 20260507073732 | 41 | 0 | 0.0 | 0.0 | 0.00 | 0.14 | 0.00 | 85 | 1011.3 |
| 20260507072731 | 41 | 0 | 0.0 | 0.0 | 0.00 | 0.15 | 0.00 | 85 | 1011.3 |
| 20260507072231 | 41 | 0 | 0.0 | 0.0 | 0.00 | 0.15 | 0.00 | 85 | 1011.3 |
| 20260507071730 | 41 | 0 | 0.0 | 0.0 | 0.00 | 0.17 | 0.00 | 85 | 1011.3 |